Time,TemperatureF,DewpointF,PressureIn,WindDirection,WindDirectionDegrees,WindSpeedMPH,WindSpeedGustMPH,Humidity,HourlyPrecipIn,Conditions,Clouds,dailyrainin,SoftwareType,DateUTC
2013-04-25 00:01:00,72.0,27.2,29.95,WNW,293,1.8,5.6,19,0.00,,,0.00,WUHU216HW,2013-04-25 07:01:00,
2013-04-25 00:06:00,71.8,28.6,29.95,NNW,338,3.1,5.4,20,0.00,,,0.00,WUHU216HW,2013-04-25 07:06:00,
2013-04-25 00:11:00,71.6,26.8,29.95,West,270,0.0,3.6,19,0.00,,,0.00,WUHU216HW,2013-04-25 07:11:00,
2013-04-25 00:16:00,71.5,28.3,29.95,NNE,23,3.1,4.0,20,0.00,,,0.00,WUHU216HW,2013-04-25 07:16:00,
2013-04-25 00:21:00,71.3,29.2,29.95,NNE,23,1.1,4.0,21,0.00,,,0.00,WUHU216HW,2013-04-25 07:21:00,
2013-04-25 00:26:00,71.3,29.2,29.94,NNW,338,1.3,4.0,21,0.00,,,0.00,WUHU216HW,2013-04-25 07:26:00,
2013-04-25 00:31:00,71.3,29.2,29.94,NNE,23,2.7,3.4,21,0.00,,,0.00,WUHU216HW,2013-04-25 07:31:00,
2013-04-25 00:36:00,71.3,29.2,29.93,SSE,158,0.7,5.8,21,0.00,,,0.00,WUHU216HW,2013-04-25 07:36:00,
2013-04-25 00:41:00,71.1,29.1,29.93,ENE,68,3.1,5.8,21,0.00,,,0.00,WUHU216HW,2013-04-25 07:41:00,
2013-04-25 00:46:00,71.1,29.1,29.93,ENE,68,3.6,4.5,21,0.00,,,0.00,WUHU216HW,2013-04-25 07:46:00,
2013-04-25 00:51:00,70.9,28.9,29.93,SE,135,1.8,4.5,21,0.00,,,0.00,WUHU216HW,2013-04-25 07:51:00,
2013-04-25 00:56:00,70.7,28.7,29.93,East,90,4.0,4.7,21,0.00,,,0.00,WUHU216HW,2013-04-25 07:56:00,
2013-04-25 01:01:00,70.6,28.6,29.92,ESE,113,1.8,4.7,21,0.00,,,0.00,WUHU216HW,2013-04-25 08:01:00,
2013-04-25 01:06:00,70.4,28.4,29.92,SE,135,2.5,4.5,21,0.00,,,0.00,WUHU216HW,2013-04-25 08:06:00,
2013-04-25 01:11:00,70.2,28.3,29.92,SE,135,2.5,3.8,21,0.00,,,0.00,WUHU216HW,2013-04-25 08:11:00,
2013-04-25 01:16:00,70.2,28.3,29.92,SSE,158,3.1,3.8,21,0.00,,,0.00,WUHU216HW,2013-04-25 08:16:00,
2013-04-25 01:21:00,69.8,28.0,29.93,SSE,158,2.7,3.8,21,0.00,,,0.00,WUHU216HW,2013-04-25 08:21:00,
2013-04-25 01:26:00,69.8,28.0,29.93,SSW,203,2.5,3.6,21,0.00,,,0.00,WUHU216HW,2013-04-25 08:26:00,
2013-04-25 01:31:00,69.7,27.9,29.93,SE,135,1.3,2.7,21,0.00,,,0.00,WUHU216HW,2013-04-25 08:31:00,
2013-04-25 01:36:00,69.5,28.7,29.92,ESE,113,3.1,3.6,22,0.00,,,0.00,WUHU216HW,2013-04-25 08:36:00,
2013-04-25 01:41:00,69.3,28.5,29.93,SSW,203,2.5,3.6,22,0.00,,,0.00,WUHU216HW,2013-04-25 08:41:00,
2013-04-25 01:46:00,69.3,28.5,29.92,SSW,203,2.9,3.8,22,0.00,,,0.00,WUHU216HW,2013-04-25 08:46:00,
2013-04-25 01:51:00,69.1,28.5,29.92,SSE,158,0.9,3.8,22,0.00,,,0.00,WUHU216HW,2013-04-25 08:51:00,
2013-04-25 01:56:00,68.9,28.3,29.92,SW,225,1.8,3.4,22,0.00,,,0.00,WUHU216HW,2013-04-25 08:56:00,
2013-04-25 02:01:00,68.9,28.3,29.92,SE,135,0.7,3.1,22,0.00,,,0.00,WUHU216HW,2013-04-25 09:01:00,
2013-04-25 02:06:00,68.9,28.3,29.92,East,90,0.4,2.0,22,0.00,,,0.00,WUHU216HW,2013-04-25 09:06:00,
2013-04-25 02:11:00,68.8,28.2,29.92,ESE,113,0.0,2.0,22,0.00,,,0.00,WUHU216HW,2013-04-25 09:11:00,
2013-04-25 02:16:00,68.4,27.8,29.93,ESE,113,0.0,0.4,22,0.00,,,0.00,WUHU216HW,2013-04-25 09:16:00,
2013-04-25 02:21:00,68.4,27.8,29.92,East,90,2.5,3.4,22,0.00,,,0.00,WUHU216HW,2013-04-25 09:21:00,
2013-04-25 02:26:00,68.4,27.8,29.92,SSW,203,1.8,3.4,22,0.00,,,0.00,WUHU216HW,2013-04-25 09:26:00,
2013-04-25 02:31:00,68.4,27.8,29.92,East,90,2.5,3.1,22,0.00,,,0.00,WUHU216HW,2013-04-25 09:31:00,
2013-04-25 02:36:00,68.2,27.7,29.92,NE,45,1.8,3.1,22,0.00,,,0.00,WUHU216HW,2013-04-25 09:36:00,
2013-04-25 02:41:00,68.4,28.8,29.92,NE,45,1.1,2.0,23,0.00,,,0.00,WUHU216HW,2013-04-25 09:41:00,
2013-04-25 02:46:00,68.4,28.8,29.92,ENE,68,2.0,2.2,23,0.00,,,0.00,WUHU216HW,2013-04-25 09:46:00,
2013-04-25 02:51:00,68.4,28.8,29.92,NE,45,2.2,2.2,23,0.00,,,0.00,WUHU216HW,2013-04-25 09:51:00,
2013-04-25 02:56:00,68.2,28.7,29.92,ENE,68,1.6,2.7,23,0.00,,,0.00,WUHU216HW,2013-04-25 09:56:00,
2013-04-25 03:01:00,68.4,27.8,29.92,ESE,113,1.3,2.7,22,0.00,,,0.00,WUHU216HW,2013-04-25 10:01:00,
2013-04-25 03:06:00,68.4,27.8,29.93,ESE,113,2.2,3.4,22,0.00,,,0.00,WUHU216HW,2013-04-25 10:06:00,
2013-04-25 03:11:00,68.4,27.8,29.92,South,180,2.5,3.6,22,0.00,,,0.00,WUHU216HW,2013-04-25 10:11:00,
2013-04-25 03:16:00,68.4,27.8,29.92,East,90,2.2,3.6,22,0.00,,,0.00,WUHU216HW,2013-04-25 10:16:00,
2013-04-25 03:21:00,68.4,27.8,29.93,East,90,3.4,4.7,22,0.00,,,0.00,WUHU216HW,2013-04-25 10:21:00,
2013-04-25 03:26:00,68.4,27.8,29.93,ESE,113,2.5,4.7,22,0.00,,,0.00,WUHU216HW,2013-04-25 10:26:00,
2013-04-25 03:31:00,68.4,27.8,29.93,ESE,113,2.2,5.4,22,0.00,,,0.00,WUHU216HW,2013-04-25 10:31:00,
2013-04-25 03:36:00,68.4,27.8,29.93,ESE,113,2.0,5.4,22,0.00,,,0.00,WUHU216HW,2013-04-25 10:36:00,
2013-04-25 03:41:00,68.4,27.8,29.93,East,90,4.0,4.0,22,0.00,,,0.00,WUHU216HW,2013-04-25 10:41:00,
2013-04-25 03:46:00,68.2,27.7,29.93,ESE,113,2.5,4.7,22,0.00,,,0.00,WUHU216HW,2013-04-25 10:46:00,
2013-04-25 03:51:00,68.2,27.7,29.93,ENE,68,5.4,6.7,22,0.00,,,0.00,WUHU216HW,2013-04-25 10:51:00,
2013-04-25 03:56:00,68.2,27.7,29.92,East,90,4.0,6.7,22,0.00,,,0.00,WUHU216HW,2013-04-25 10:56:00,
2013-04-25 04:01:00,68.2,27.7,29.92,ESE,113,9.2,9.6,22,0.00,,,0.00,WUHU216HW,2013-04-25 11:01:00,
2013-04-25 04:06:00,68.2,27.7,29.92,ESE,113,6.3,9.6,22,0.00,,,0.00,WUHU216HW,2013-04-25 11:06:00,
2013-04-25 04:11:00,68.0,27.5,29.92,SE,135,7.6,9.2,22,0.00,,,0.00,WUHU216HW,2013-04-25 11:11:00,
2013-04-25 04:16:00,68.2,27.7,29.92,East,90,8.3,9.6,22,0.00,,,0.00,WUHU216HW,2013-04-25 11:16:00,
2013-04-25 04:21:00,68.2,27.7,29.92,SE,135,8.1,10.7,22,0.00,,,0.00,WUHU216HW,2013-04-25 11:21:00,
2013-04-25 04:26:00,68.2,27.7,29.92,NE,45,5.4,10.7,22,0.00,,,0.00,WUHU216HW,2013-04-25 11:26:00,
2013-04-25 04:31:00,68.2,27.7,29.92,East,90,5.1,11.4,22,0.00,,,0.00,WUHU216HW,2013-04-25 11:31:00,
2013-04-25 04:36:00,68.2,27.7,29.92,East,90,5.6,11.4,22,0.00,,,0.00,WUHU216HW,2013-04-25 11:36:00,
2013-04-25 04:41:00,68.2,27.7,29.92,ESE,113,6.3,9.8,22,0.00,,,0.00,WUHU216HW,2013-04-25 11:41:00,
2013-04-25 04:46:00,68.2,27.7,29.92,SE,135,5.8,13.0,22,0.00,,,0.00,WUHU216HW,2013-04-25 11:46:00,
2013-04-25 04:51:00,68.0,27.5,29.92,SE,135,6.7,13.0,22,0.00,,,0.00,WUHU216HW,2013-04-25 11:51:00,
2013-04-25 04:56:00,68.0,27.5,29.92,East,90,6.0,10.5,22,0.00,,,0.00,WUHU216HW,2013-04-25 11:56:00,
2013-04-25 05:01:00,68.0,27.5,29.92,ESE,113,7.4,12.3,22,0.00,,,0.00,WUHU216HW,2013-04-25 12:01:00,
2013-04-25 05:06:00,68.4,27.8,29.92,ESE,113,6.5,12.3,22,0.00,,,0.00,WUHU216HW,2013-04-25 12:06:00,
2013-04-25 05:11:00,68.2,27.7,29.92,SE,135,6.9,11.2,22,0.00,,,0.00,WUHU216HW,2013-04-25 12:11:00,
2013-04-25 05:16:00,68.2,27.7,29.92,East,90,6.7,11.2,22,0.00,,,0.00,WUHU216HW,2013-04-25 12:16:00,
2013-04-25 05:21:00,68.0,27.5,29.92,ESE,113,3.6,10.7,22,0.00,,,0.00,WUHU216HW,2013-04-25 12:21:00,
2013-04-25 05:26:00,67.9,27.4,29.92,SSE,158,4.7,10.7,22,0.00,,,0.00,WUHU216HW,2013-04-25 12:26:00,
2013-04-25 05:31:00,67.7,27.2,29.92,SE,135,5.1,12.8,22,0.00,,,0.00,WUHU216HW,2013-04-25 12:31:00,
2013-04-25 05:36:00,67.7,27.2,29.92,ESE,113,5.1,12.8,22,0.00,,,0.00,WUHU216HW,2013-04-25 12:36:00,
2013-04-25 05:41:00,67.7,27.2,29.92,ESE,113,3.6,9.4,22,0.00,,,0.00,WUHU216HW,2013-04-25 12:41:00,
2013-04-25 05:46:00,67.5,27.1,29.93,SE,135,3.4,9.4,22,0.00,,,0.00,WUHU216HW,2013-04-25 12:46:00,
2013-04-25 05:51:00,67.3,26.9,29.93,ENE,68,3.4,8.9,22,0.00,,,0.00,WUHU216HW,2013-04-25 12:51:00,
2013-04-25 05:56:00,67.3,26.9,29.93,SSW,203,5.8,9.2,22,0.00,,,0.00,WUHU216HW,2013-04-25 12:56:00,
2013-04-25 06:01:00,67.5,27.1,29.93,ESE,113,2.0,9.2,22,0.00,,,0.00,WUHU216HW,2013-04-25 13:01:00,
2013-04-25 06:06:00,67.5,27.1,29.94,SE,135,4.7,7.2,22,0.00,,,0.00,WUHU216HW,2013-04-25 13:06:00,
2013-04-25 06:11:00,67.5,27.1,29.94,East,90,2.0,4.7,22,0.00,,,0.00,WUHU216HW,2013-04-25 13:11:00,
2013-04-25 06:16:00,67.3,26.9,29.94,East,90,3.1,6.9,22,0.00,,,0.00,WUHU216HW,2013-04-25 13:16:00,
2013-04-25 06:21:00,67.1,27.7,29.94,SE,135,2.7,6.9,23,0.00,,,0.00,WUHU216HW,2013-04-25 13:21:00,
2013-04-25 06:26:00,67.1,27.7,29.94,ENE,68,4.0,5.4,23,0.00,,,0.00,WUHU216HW,2013-04-25 13:26:00,
2013-04-25 06:31:00,67.3,27.9,29.94,ENE,68,5.4,8.3,23,0.00,,,0.00,WUHU216HW,2013-04-25 13:31:00,
2013-04-25 06:36:00,67.5,28.1,29.93,SE,135,3.4,8.3,23,0.00,,,0.00,WUHU216HW,2013-04-25 13:36:00,
2013-04-25 06:41:00,67.7,28.3,29.94,SE,135,6.5,6.5,23,0.00,,,0.00,WUHU216HW,2013-04-25 13:41:00,
2013-04-25 06:46:00,68.0,28.5,29.94,ESE,113,2.5,6.7,23,0.00,,,0.00,WUHU216HW,2013-04-25 13:46:00,
2013-04-25 06:51:00,68.0,28.5,29.94,SE,135,4.9,6.9,23,0.00,,,0.00,WUHU216HW,2013-04-25 13:51:00,
2013-04-25 06:56:00,68.2,28.7,29.95,SE,135,3.8,6.9,23,0.00,,,0.00,WUHU216HW,2013-04-25 13:56:00,
2013-04-25 07:01:00,68.0,28.5,29.95,SE,135,3.1,5.8,23,0.00,,,0.00,WUHU216HW,2013-04-25 14:01:00,
2013-04-25 07:06:00,67.7,28.3,29.95,West,270,1.1,5.6,23,0.00,,,0.00,WUHU216HW,2013-04-25 14:06:00,
2013-04-25 07:11:00,67.7,28.3,29.96,South,180,2.9,5.4,23,0.00,,,0.00,WUHU216HW,2013-04-25 14:11:00,
2013-04-25 07:16:00,67.5,28.1,29.96,SSW,203,1.8,5.1,23,0.00,,,0.00,WUHU216HW,2013-04-25 14:16:00,
2013-04-25 07:21:00,67.7,28.3,29.96,SE,135,1.3,5.4,23,0.00,,,0.00,WUHU216HW,2013-04-25 14:21:00,
2013-04-25 07:26:00,67.7,28.3,29.96,SSE,158,4.9,5.4,23,0.00,,,0.00,WUHU216HW,2013-04-25 14:26:00,
2013-04-25 07:31:00,67.9,28.4,29.96,ESE,113,3.6,5.4,23,0.00,,,0.00,WUHU216HW,2013-04-25 14:31:00,
2013-04-25 07:36:00,68.0,28.5,29.96,East,90,6.5,6.5,23,0.00,,,0.00,WUHU216HW,2013-04-25 14:36:00,
2013-04-25 07:41:00,68.0,28.5,29.96,ENE,68,7.2,12.8,23,0.00,,,0.00,WUHU216HW,2013-04-25 14:41:00,
2013-04-25 07:46:00,68.2,28.7,29.95,ESE,113,5.6,12.8,23,0.00,,,0.00,WUHU216HW,2013-04-25 14:46:00,
2013-04-25 07:51:00,68.6,28.0,29.95,SSE,158,7.6,10.7,22,0.00,,,0.00,WUHU216HW,2013-04-25 14:51:00,
2013-04-25 07:56:00,68.9,28.3,29.96,ENE,68,4.7,11.0,22,0.00,,,0.00,WUHU216HW,2013-04-25 14:56:00,
2013-04-25 08:01:00,68.9,28.3,29.96,East,90,4.7,11.0,22,0.00,,,0.00,WUHU216HW,2013-04-25 15:01:00,
2013-04-25 08:06:00,69.1,28.5,29.96,ESE,113,7.8,7.8,22,0.00,,,0.00,WUHU216HW,2013-04-25 15:06:00,
2013-04-25 08:11:00,69.5,28.7,29.95,ESE,113,8.9,9.2,22,0.00,,,0.00,WUHU216HW,2013-04-25 15:11:00,
2013-04-25 08:16:00,69.5,28.7,29.95,SSE,158,8.7,10.5,22,0.00,,,0.00,WUHU216HW,2013-04-25 15:16:00,
2013-04-25 08:21:00,70.0,29.2,29.95,SE,135,5.6,11.0,22,0.00,,,0.00,WUHU216HW,2013-04-25 15:21:00,
2013-04-25 08:26:00,70.6,28.6,29.95,SE,135,7.6,13.2,21,0.00,,,0.00,WUHU216HW,2013-04-25 15:26:00,
2013-04-25 08:31:00,70.9,28.9,29.95,SSW,203,7.6,13.2,21,0.00,,,0.00,WUHU216HW,2013-04-25 15:31:00,
2013-04-25 08:36:00,71.3,29.2,29.95,South,180,6.3,10.7,21,0.00,,,0.00,WUHU216HW,2013-04-25 15:36:00,
2013-04-25 08:41:00,71.6,29.4,29.95,South,180,11.0,13.2,21,0.00,,,0.00,WUHU216HW,2013-04-25 15:41:00,
2013-04-25 08:46:00,72.0,28.8,29.95,SE,135,8.9,13.2,20,0.00,,,0.00,WUHU216HW,2013-04-25 15:46:00,
2013-04-25 08:51:00,72.7,27.8,29.95,SSW,203,7.6,13.4,19,0.00,,,0.00,WUHU216HW,2013-04-25 15:51:00,
2013-04-25 08:56:00,73.1,28.1,29.95,SE,135,8.1,13.4,19,0.00,,,0.00,WUHU216HW,2013-04-25 15:56:00,
2013-04-25 09:01:00,73.3,28.3,29.95,South,180,10.5,12.5,19,0.00,,,0.00,WUHU216HW,2013-04-25 16:01:00,
2013-04-25 09:06:00,73.4,28.5,29.95,SSE,158,9.2,15.7,19,0.00,,,0.00,WUHU216HW,2013-04-25 16:06:00,
2013-04-25 09:11:00,73.8,27.1,29.95,SSE,158,9.6,16.1,18,0.00,,,0.00,WUHU216HW,2013-04-25 16:11:00,
2013-04-25 09:16:00,74.2,29.0,29.95,South,180,5.4,16.1,19,0.00,,,0.00,WUHU216HW,2013-04-25 16:16:00,
2013-04-25 09:21:00,74.5,29.3,29.95,SSE,158,9.8,13.6,19,0.00,,,0.00,WUHU216HW,2013-04-25 16:21:00,
2013-04-25 09:26:00,74.9,27.9,29.96,South,180,6.7,17.9,18,0.00,,,0.00,WUHU216HW,2013-04-25 16:26:00,
2013-04-25 09:31:00,75.2,28.2,29.96,NNE,23,6.7,17.9,18,0.00,,,0.00,WUHU216HW,2013-04-25 16:31:00,
2013-04-25 09:36:00,75.6,28.4,29.96,SE,135,10.5,16.3,18,0.00,,,0.00,WUHU216HW,2013-04-25 16:36:00,
2013-04-25 09:41:00,76.0,28.8,29.96,SE,135,9.4,16.3,18,0.00,,,0.00,WUHU216HW,2013-04-25 16:41:00,
2013-04-25 09:46:00,76.3,29.1,29.96,SSE,158,10.1,13.9,18,0.00,,,0.00,WUHU216HW,2013-04-25 16:46:00,
2013-04-25 09:51:00,76.7,29.3,29.96,ESE,113,8.5,11.0,18,0.00,,,0.00,WUHU216HW,2013-04-25 16:51:00,
2013-04-25 09:56:00,76.9,29.5,29.96,SSW,203,4.5,15.4,18,0.00,,,0.00,WUHU216HW,2013-04-25 16:56:00,
2013-04-25 10:01:00,77.4,29.9,29.96,ESE,113,10.3,15.4,18,0.00,,,0.00,WUHU216HW,2013-04-25 17:01:00,
2013-04-25 10:06:00,77.8,28.5,29.95,SE,135,6.3,12.5,17,0.00,,,0.00,WUHU216HW,2013-04-25 17:06:00,
2013-04-25 10:11:00,78.1,28.8,29.95,SSE,158,6.5,15.2,17,0.00,,,0.00,WUHU216HW,2013-04-25 17:11:00,
2013-04-25 10:16:00,78.8,29.3,29.95,SSW,203,9.2,15.9,17,0.00,,,0.00,WUHU216HW,2013-04-25 17:16:00,
2013-04-25 10:21:00,79.0,29.5,29.95,SE,135,11.2,15.9,17,0.00,,,0.00,WUHU216HW,2013-04-25 17:21:00,
2013-04-25 10:26:00,79.4,29.8,29.95,SSE,158,12.1,16.1,17,0.00,,,0.00,WUHU216HW,2013-04-25 17:26:00,
2013-04-25 10:31:00,79.7,30.2,29.95,South,180,6.9,16.1,17,0.00,,,0.00,WUHU216HW,2013-04-25 17:31:00,
2013-04-25 10:36:00,79.6,30.0,29.95,South,180,9.8,14.5,17,0.00,,,0.00,WUHU216HW,2013-04-25 17:36:00,
2013-04-25 10:41:00,79.9,28.6,29.95,WSW,248,15.7,15.7,16,0.00,,,0.00,WUHU216HW,2013-04-25 17:41:00,
2013-04-25 10:46:00,79.9,26.9,29.96,South,180,9.8,21.5,15,0.00,,,0.00,WUHU216HW,2013-04-25 17:46:00,
2013-04-25 10:51:00,79.9,26.9,29.96,SW,225,20.1,21.5,15,0.00,,,0.00,WUHU216HW,2013-04-25 17:51:00,
2013-04-25 10:56:00,80.3,27.3,29.96,South,180,9.8,20.1,15,0.00,,,0.00,WUHU216HW,2013-04-25 17:56:00,
2013-04-25 11:01:00,80.3,27.3,29.96,SSW,203,10.7,20.1,15,0.00,,,0.00,WUHU216HW,2013-04-25 18:01:00,
2013-04-25 11:06:00,79.9,26.9,29.96,SW,225,12.1,15.9,15,0.00,,,0.00,WUHU216HW,2013-04-25 18:06:00,
2013-04-25 11:11:00,80.3,27.3,29.96,WNW,293,9.6,13.4,15,0.00,,,0.00,WUHU216HW,2013-04-25 18:11:00,
2013-04-25 11:16:00,80.6,27.5,29.95,South,180,9.2,14.3,15,0.00,,,0.00,WUHU216HW,2013-04-25 18:16:00,
2013-04-25 11:21:00,81.7,28.5,29.95,East,90,12.3,15.4,15,0.00,,,0.00,WUHU216HW,2013-04-25 18:21:00,
2013-04-25 11:26:00,82.6,29.1,29.95,South,180,12.1,16.1,15,0.00,,,0.00,WUHU216HW,2013-04-25 18:26:00,
2013-04-25 11:31:00,82.6,25.8,29.95,SW,225,14.3,16.1,13,0.00,,,0.00,WUHU216HW,2013-04-25 18:31:00,
2013-04-25 11:36:00,82.4,25.6,29.95,SSE,158,6.3,15.7,13,0.00,,,0.00,WUHU216HW,2013-04-25 18:36:00,
2013-04-25 11:41:00,82.8,25.8,29.95,SW,225,12.1,14.3,13,0.00,,,0.00,WUHU216HW,2013-04-25 18:41:00,
2013-04-25 11:45:00,82.3,25.5,29.95,SSW,203,10.7,13.6,13,0.00,,,0.00,WUHU216HW,2013-04-25 18:45:00,
2013-04-25 11:50:00,82.1,25.3,29.95,WSW,248,7.2,16.3,13,0.00,,,0.00,WUHU216HW,2013-04-25 18:50:00,
2013-04-25 11:55:00,81.9,23.5,29.95,WSW,248,10.7,16.3,12,0.00,,,0.00,WUHU216HW,2013-04-25 18:55:00,
2013-04-25 12:00:00,81.5,23.2,29.95,SW,225,8.7,15.7,12,0.00,,,0.00,WUHU216HW,2013-04-25 19:00:00,
2013-04-25 12:05:00,81.4,23.0,29.95,SSW,203,13.0,13.9,12,0.00,,,0.00,WUHU216HW,2013-04-25 19:05:00,
2013-04-25 12:10:00,81.4,21.3,29.95,WSW,248,15.2,15.4,11,0.00,,,0.00,WUHU216HW,2013-04-25 19:10:00,
2013-04-25 12:15:00,81.4,19.6,29.95,SSW,203,18.6,25.9,10,0.00,,,0.00,WUHU216HW,2013-04-25 19:15:00,
2013-04-25 12:20:00,81.5,19.8,29.96,SW,225,19.7,25.9,10,0.00,,,0.00,WUHU216HW,2013-04-25 19:20:00,
2013-04-25 12:25:00,81.2,19.5,29.96,West,270,10.7,20.8,10,0.00,,,0.00,WUHU216HW,2013-04-25 19:25:00,
2013-04-25 12:30:00,81.5,21.5,29.96,SW,225,11.9,20.8,11,0.00,,,0.00,WUHU216HW,2013-04-25 19:30:00,
2013-04-25 12:35:00,82.8,22.5,29.96,WSW,248,8.5,16.3,11,0.00,,,0.00,WUHU216HW,2013-04-25 19:35:00,
2013-04-25 12:40:00,82.8,20.8,29.96,NNW,338,10.5,14.5,10,0.00,,,0.00,WUHU216HW,2013-04-25 19:40:00,
2013-04-25 12:45:00,83.0,20.9,29.96,WSW,248,14.5,19.7,9,0.00,,,0.00,WUHU216HW,2013-04-25 19:45:00,
2013-04-25 12:50:00,82.3,20.3,29.96,WSW,248,17.0,19.7,8,0.00,,,0.00,WUHU216HW,2013-04-25 19:50:00,
2013-04-25 12:55:00,81.7,20.0,29.96,WSW,248,7.2,23.9,8,0.00,,,0.00,WUHU216HW,2013-04-25 19:55:00,
2013-04-25 13:00:00,82.8,20.8,29.96,SSW,203,14.1,23.9,8,0.00,,,0.00,WUHU216HW,2013-04-25 20:00:00,
2013-04-25 13:05:00,82.4,20.5,29.97,SW,225,8.5,21.3,8,0.00,,,0.00,WUHU216HW,2013-04-25 20:05:00,
2013-04-25 13:10:00,82.3,20.3,29.96,SW,225,10.7,21.3,8,0.00,,,0.00,WUHU216HW,2013-04-25 20:10:00,
2013-04-25 13:15:00,82.4,20.5,29.96,SSW,203,10.5,20.8,8,0.00,,,0.00,WUHU216HW,2013-04-25 20:15:00,
2013-04-25 13:20:00,82.4,20.5,29.96,WSW,248,7.4,20.8,8,0.00,,,0.00,WUHU216HW,2013-04-25 20:20:00,
2013-04-25 13:25:00,82.4,20.5,29.97,SW,225,16.3,16.8,10,0.00,,,0.00,WUHU216HW,2013-04-25 20:25:00,
2013-04-25 13:30:00,82.8,20.8,29.97,SSW,203,15.0,17.2,10,0.00,,,0.00,WUHU216HW,2013-04-25 20:30:00,
2013-04-25 13:35:00,83.5,21.2,29.97,WSW,248,6.9,17.2,10,0.00,,,0.00,WUHU216HW,2013-04-25 20:35:00,
2013-04-25 13:40:00,84.6,22.1,29.96,SSW,203,9.6,15.0,10,0.00,,,0.00,WUHU216HW,2013-04-25 20:40:00,
2013-04-25 13:45:00,84.8,22.2,29.95,South,180,9.8,16.3,10,0.00,,,0.00,WUHU216HW,2013-04-25 20:45:00,
2013-04-25 13:50:00,85.3,24.4,29.95,West,270,5.4,16.3,11,0.00,,,0.00,WUHU216HW,2013-04-25 20:50:00,
2013-04-25 13:55:00,85.9,23.0,29.94,South,180,2.9,15.2,10,0.00,,,0.00,WUHU216HW,2013-04-25 20:55:00,
2013-04-25 14:00:00,86.4,23.5,29.94,South,180,11.4,14.3,10,0.00,,,0.00,WUHU216HW,2013-04-25 21:00:00,
2013-04-25 14:05:00,86.9,25.7,29.94,SE,135,4.7,14.3,11,0.00,,,0.00,WUHU216HW,2013-04-25 21:05:00,
2013-04-25 14:10:00,87.3,25.9,29.94,SSE,158,7.2,13.6,11,0.00,,,0.00,WUHU216HW,2013-04-25 21:10:00,
2013-04-25 14:15:00,86.9,23.9,29.94,West,270,10.7,13.6,10,0.00,,,0.00,WUHU216HW,2013-04-25 21:15:00,
2013-04-25 14:20:00,85.7,24.7,29.95,West,270,9.2,13.9,11,0.00,,,0.00,WUHU216HW,2013-04-25 21:20:00,
2013-04-25 14:25:00,84.1,23.4,29.94,South,180,5.1,13.9,11,0.00,,,0.00,WUHU216HW,2013-04-25 21:25:00,
2013-04-25 14:30:00,84.4,23.7,29.95,SSW,203,9.2,17.9,11,0.00,,,0.00,WUHU216HW,2013-04-25 21:30:00,
2013-04-25 14:35:00,85.5,26.2,29.94,WSW,248,3.1,17.9,12,0.00,,,0.00,WUHU216HW,2013-04-25 21:35:00,
2013-04-25 14:40:00,86.4,25.2,29.95,WSW,248,10.5,13.6,11,0.00,,,0.00,WUHU216HW,2013-04-25 21:40:00,
2013-04-25 14:45:00,85.1,24.2,29.95,West,270,8.7,13.6,11,0.00,,,0.00,WUHU216HW,2013-04-25 21:45:00,
2013-04-25 14:50:00,83.3,22.9,29.94,WNW,293,7.6,13.6,11,0.00,,,0.00,WUHU216HW,2013-04-25 21:50:00,
2013-04-25 14:55:00,83.5,26.4,29.94,WNW,293,8.5,16.6,13,0.00,,,0.00,WUHU216HW,2013-04-25 21:55:00,
2013-04-25 15:00:00,82.8,25.8,29.94,NNW,338,7.2,16.6,13,0.00,,,0.00,WUHU216HW,2013-04-25 22:00:00,
2013-04-25 15:05:00,82.1,25.3,29.94,NW,315,8.5,19.9,13,0.00,,,0.00,WUHU216HW,2013-04-25 22:05:00,
2013-04-25 15:10:00,81.9,25.2,29.94,WNW,293,10.1,19.2,13,0.00,,,0.00,WUHU216HW,2013-04-25 22:10:00,
2013-04-25 15:15:00,81.4,24.8,29.94,WNW,293,22.4,22.4,13,0.00,,,0.00,WUHU216HW,2013-04-25 22:15:00,
2013-04-25 15:20:00,81.2,28.0,29.94,NW,315,10.7,22.4,15,0.00,,,0.00,WUHU216HW,2013-04-25 22:20:00,
2013-04-25 15:25:00,81.0,27.8,29.95,WNW,293,12.1,22.4,15,0.00,,,0.00,WUHU216HW,2013-04-25 22:25:00,
2013-04-25 15:30:00,81.2,24.6,29.94,West,270,12.1,17.7,13,0.00,,,0.00,WUHU216HW,2013-04-25 22:30:00,
2013-04-25 15:35:00,81.2,24.6,29.94,West,270,16.1,17.7,13,0.00,,,0.00,WUHU216HW,2013-04-25 22:35:00,
2013-04-25 15:40:00,81.4,24.8,29.94,WNW,293,10.3,17.2,13,0.00,,,0.00,WUHU216HW,2013-04-25 22:40:00,
2013-04-25 15:45:00,81.0,24.5,29.94,WNW,293,21.7,21.7,13,0.00,,,0.00,WUHU216HW,2013-04-25 22:45:00,
2013-04-25 15:50:00,80.8,24.3,29.95,West,270,15.9,21.7,13,0.00,,,0.00,WUHU216HW,2013-04-25 22:50:00,
2013-04-25 15:55:00,80.6,24.1,29.94,WSW,248,14.8,21.7,13,0.00,,,0.00,WUHU216HW,2013-04-25 22:55:00,
2013-04-25 16:00:00,80.6,24.1,29.93,NW,315,8.5,17.9,13,0.00,,,0.00,WUHU216HW,2013-04-25 23:00:00,
2013-04-25 16:05:00,81.0,22.8,29.93,WNW,293,19.2,19.2,12,0.00,,,0.00,WUHU216HW,2013-04-25 23:05:00,
2013-04-25 16:10:00,80.6,24.1,29.93,WNW,293,9.2,20.8,13,0.00,,,0.00,WUHU216HW,2013-04-25 23:10:00,
2013-04-25 16:15:00,80.6,22.5,29.93,NW,315,21.3,21.3,12,0.00,,,0.00,WUHU216HW,2013-04-25 23:15:00,
2013-04-25 16:20:00,80.1,22.1,29.94,West,270,11.4,21.3,12,0.00,,,0.00,WUHU216HW,2013-04-25 23:20:00,
2013-04-25 16:25:00,80.3,22.1,29.94,West,270,14.5,21.3,12,0.00,,,0.00,WUHU216HW,2013-04-25 23:25:00,
2013-04-25 16:30:00,80.1,23.7,29.94,WSW,248,14.5,17.0,13,0.00,,,0.00,WUHU216HW,2013-04-25 23:30:00,
2013-04-25 16:35:00,80.3,23.9,29.95,WNW,293,10.5,17.0,13,0.00,,,0.00,WUHU216HW,2013-04-25 23:35:00,
2013-04-25 16:40:00,80.1,23.7,29.95,West,270,17.2,18.1,13,0.00,,,0.00,WUHU216HW,2013-04-25 23:40:00,
2013-04-25 16:45:00,79.7,26.8,29.95,West,270,14.3,18.1,15,0.00,,,0.00,WUHU216HW,2013-04-25 23:45:00,
2013-04-25 16:50:00,79.7,23.4,29.95,NW,315,15.0,17.2,13,0.00,,,0.00,WUHU216HW,2013-04-25 23:50:00,
2013-04-25 16:55:00,79.2,24.7,29.95,NW,315,6.3,17.7,14,0.00,,,0.00,WUHU216HW,2013-04-25 23:55:00,
2013-04-25 17:00:00,79.0,26.2,29.95,WSW,248,13.2,20.1,15,0.00,,,0.00,WUHU216HW,2013-04-26 00:00:00,
2013-04-25 17:05:00,78.8,26.0,29.96,WNW,293,8.7,20.1,15,0.00,,,0.00,WUHU216HW,2013-04-26 00:05:00,
2013-04-25 17:10:00,78.7,27.5,29.96,NW,315,14.5,17.4,16,0.00,,,0.00,WUHU216HW,2013-04-26 00:10:00,
2013-04-25 17:15:00,78.1,27.2,29.96,WSW,248,9.4,17.0,16,0.00,,,0.00,WUHU216HW,2013-04-26 00:15:00,
2013-04-25 17:20:00,78.5,27.5,29.96,West,270,13.4,17.0,16,0.00,,,0.00,WUHU216HW,2013-04-26 00:20:00,
2013-04-25 17:25:00,78.1,27.2,29.96,WNW,293,15.9,16.3,16,0.00,,,0.00,WUHU216HW,2013-04-26 00:25:00,
2013-04-25 17:30:00,77.9,27.0,29.97,NW,315,12.8,15.9,16,0.00,,,0.00,WUHU216HW,2013-04-26 00:30:00,
2013-04-25 17:35:00,77.6,26.7,29.97,WSW,248,11.6,14.8,16,0.00,,,0.00,WUHU216HW,2013-04-26 00:35:00,
2013-04-25 17:40:00,77.8,26.8,29.96,West,270,9.6,14.8,16,0.00,,,0.00,WUHU216HW,2013-04-26 00:40:00,
2013-04-25 17:45:00,77.9,27.0,29.96,West,270,6.0,14.5,16,0.00,,,0.00,WUHU216HW,2013-04-26 00:45:00,
2013-04-25 17:50:00,77.8,26.8,29.95,NW,315,9.2,14.8,16,0.00,,,0.00,WUHU216HW,2013-04-26 00:50:00,
2013-04-25 17:55:00,77.8,26.8,29.95,WNW,293,14.3,14.8,16,0.00,,,0.00,WUHU216HW,2013-04-26 00:55:00,
2013-04-25 18:00:00,77.4,28.3,29.95,NNW,338,8.5,16.8,17,0.00,,,0.00,WUHU216HW,2013-04-26 01:00:00,
2013-04-25 18:05:00,77.2,28.1,29.96,WNW,293,6.9,16.8,17,0.00,,,0.00,WUHU216HW,2013-04-26 01:05:00,
2013-04-25 18:10:00,77.0,26.3,29.96,WNW,293,10.7,13.6,16,0.00,,,0.00,WUHU216HW,2013-04-26 01:10:00,
2013-04-25 18:15:00,76.7,26.0,29.97,WSW,248,9.8,13.6,16,0.00,,,0.00,WUHU216HW,2013-04-26 01:15:00,
2013-04-25 18:20:00,76.7,26.0,29.97,West,270,8.9,13.4,16,0.00,,,0.00,WUHU216HW,2013-04-26 01:20:00,
2013-04-25 18:25:00,76.5,25.9,29.98,NNW,338,9.8,13.4,16,0.00,,,0.00,WUHU216HW,2013-04-26 01:25:00,
2013-04-25 18:30:00,76.1,25.6,29.98,NNW,338,9.8,13.0,16,0.00,,,0.00,WUHU216HW,2013-04-26 01:30:00,
2013-04-25 18:35:00,75.8,25.3,29.98,NW,315,9.2,13.0,16,0.00,,,0.00,WUHU216HW,2013-04-26 01:35:00,
2013-04-25 18:40:00,75.2,24.8,29.98,North,0,8.9,13.4,16,0.00,,,0.00,WUHU216HW,2013-04-26 01:40:00,
2013-04-25 18:45:00,75.1,24.8,29.98,West,270,4.0,13.4,16,0.00,,,0.00,WUHU216HW,2013-04-26 01:45:00,
2013-04-25 18:50:00,74.5,24.3,29.98,WNW,293,8.1,11.0,16,0.00,,,0.00,WUHU216HW,2013-04-26 01:50:00,
2013-04-25 18:55:00,74.0,22.3,29.98,West,270,9.8,13.9,15,0.00,,,0.00,WUHU216HW,2013-04-26 01:55:00,
2013-04-25 19:00:00,73.1,21.6,29.99,NW,315,8.5,13.9,15,0.00,,,0.00,WUHU216HW,2013-04-26 02:00:00,
2013-04-25 19:05:00,72.4,21.0,29.99,WNW,293,6.9,12.1,15,0.00,,,0.00,WUHU216HW,2013-04-26 02:05:00,
2013-04-25 19:10:00,72.0,20.6,29.99,NW,315,6.5,12.1,15,0.00,,,0.00,WUHU216HW,2013-04-26 02:10:00,
2013-04-25 19:15:00,71.6,22.0,29.99,NW,315,6.3,12.1,16,0.00,,,0.00,WUHU216HW,2013-04-26 02:15:00,
2013-04-25 19:20:00,71.3,21.7,29.99,WNW,293,6.0,10.1,16,0.00,,,0.00,WUHU216HW,2013-04-26 02:20:00,
2013-04-25 19:25:00,70.9,21.4,29.99,WNW,293,6.9,9.2,16,0.00,,,0.00,WUHU216HW,2013-04-26 02:25:00,
2013-04-25 19:30:00,70.7,21.2,30.00,NW,315,6.3,8.5,16,0.00,,,0.00,WUHU216HW,2013-04-26 02:30:00,
2013-04-25 19:35:00,70.6,19.4,30.00,WNW,293,5.8,9.2,15,0.00,,,0.00,WUHU216HW,2013-04-26 02:35:00,
2013-04-25 19:40:00,70.2,19.2,30.00,NW,315,5.1,9.2,15,0.00,,,0.00,WUHU216HW,2013-04-26 02:40:00,
2013-04-25 19:45:00,70.0,20.7,29.99,NW,315,6.0,8.9,16,0.00,,,0.00,WUHU216HW,2013-04-26 02:45:00,
2013-04-25 19:50:00,69.8,18.9,29.99,WNW,293,3.8,7.8,15,0.00,,,0.00,WUHU216HW,2013-04-26 02:50:00,
2013-04-25 19:55:00,69.8,20.5,29.99,NW,315,5.6,7.2,16,0.00,,,0.00,WUHU216HW,2013-04-26 02:55:00,
2013-04-25 20:00:00,69.7,20.3,29.99,NNW,338,4.7,7.2,16,0.00,,,0.00,WUHU216HW,2013-04-26 03:00:00,
2013-04-25 20:05:00,69.5,20.3,29.99,NW,315,6.5,6.9,16,0.00,,,0.00,WUHU216HW,2013-04-26 03:05:00,
2013-04-25 20:10:00,69.3,20.1,30.00,NNW,338,4.7,7.4,16,0.00,,,0.00,WUHU216HW,2013-04-26 03:10:00,
2013-04-25 20:15:00,69.5,20.3,30.00,WNW,293,6.9,8.5,16,0.00,,,0.00,WUHU216HW,2013-04-26 03:15:00,
2013-04-25 20:20:00,69.3,20.1,30.01,WNW,293,6.9,8.5,16,0.00,,,0.00,WUHU216HW,2013-04-26 03:20:00,
2013-04-25 20:25:00,69.1,20.0,30.01,NW,315,6.0,7.8,16,0.00,,,0.00,WUHU216HW,2013-04-26 03:25:00,
2013-04-25 20:30:00,68.9,21.4,30.01,North,0,5.8,9.2,17,0.00,,,0.00,WUHU216HW,2013-04-26 03:30:00,
2013-04-25 20:35:00,68.8,21.3,30.02,NW,315,7.2,9.2,17,0.00,,,0.00,WUHU216HW,2013-04-26 03:35:00,
2013-04-25 20:40:00,68.8,23.0,30.02,NW,315,4.7,7.2,18,0.00,,,0.00,WUHU216HW,2013-04-26 03:40:00,
2013-04-25 20:45:00,68.6,22.8,30.02,WNW,293,6.3,9.8,18,0.00,,,0.00,WUHU216HW,2013-04-26 03:45:00,
2013-04-25 20:50:00,68.4,22.7,30.03,WNW,293,4.5,9.8,18,0.00,,,0.00,WUHU216HW,2013-04-26 03:50:00,
2013-04-25 20:55:00,68.4,22.7,30.03,WNW,293,4.0,7.6,18,0.00,,,0.00,WUHU216HW,2013-04-26 03:55:00,
2013-04-25 21:00:00,68.4,24.2,30.03,WNW,293,4.3,9.6,19,0.00,,,0.00,WUHU216HW,2013-04-26 04:00:00,
2013-04-25 21:01:00,68.4,24.2,30.03,NW,315,4.7,9.6,19,0.00,,,0.00,WUHU216HW,2013-04-26 04:01:00,
2013-04-25 21:06:00,68.2,24.1,30.03,WNW,293,3.8,9.6,19,0.00,,,0.00,WUHU216HW,2013-04-26 04:06:00,
2013-04-25 21:11:00,68.2,26.7,30.04,NNW,338,4.0,7.6,21,0.00,,,0.00,WUHU216HW,2013-04-26 04:11:00,
2013-04-25 21:16:00,68.2,26.7,30.04,WNW,293,4.9,8.7,21,0.00,,,0.00,WUHU216HW,2013-04-26 04:16:00,
2013-04-25 21:21:00,68.0,26.6,30.04,WNW,293,3.8,8.7,21,0.00,,,0.00,WUHU216HW,2013-04-26 04:21:00,
2013-04-25 21:26:00,68.0,26.6,30.04,West,270,6.3,11.0,21,0.00,,,0.00,WUHU216HW,2013-04-26 04:26:00,
2013-04-25 21:31:00,68.0,26.6,30.04,NNW,338,8.7,11.0,21,0.00,,,0.00,WUHU216HW,2013-04-26 04:31:00,
2013-04-25 21:36:00,67.9,27.4,30.04,NW,315,4.7,8.7,22,0.00,,,0.00,WUHU216HW,2013-04-26 04:36:00,
2013-04-25 21:41:00,67.7,27.2,30.04,NNW,338,5.4,8.9,22,0.00,,,0.00,WUHU216HW,2013-04-26 04:41:00,
2013-04-25 21:46:00,67.7,27.2,30.04,NNW,338,6.3,8.9,22,0.00,,,0.00,WUHU216HW,2013-04-26 04:46:00,
2013-04-25 21:51:00,67.7,27.2,30.04,NW,315,5.8,9.8,22,0.00,,,0.00,WUHU216HW,2013-04-26 04:51:00,
2013-04-25 21:56:00,67.7,27.2,30.04,North,0,5.8,10.5,22,0.00,,,0.00,WUHU216HW,2013-04-26 04:56:00,
2013-04-25 22:01:00,67.7,28.3,30.04,NNW,338,13.2,13.2,23,0.00,,,0.00,WUHU216HW,2013-04-26 05:01:00,
2013-04-25 22:06:00,67.9,27.4,30.05,NNW,338,5.1,13.2,22,0.00,,,0.00,WUHU216HW,2013-04-26 05:06:00,
2013-04-25 22:11:00,67.7,27.2,30.05,NNW,338,4.9,13.2,22,0.00,,,0.00,WUHU216HW,2013-04-26 05:11:00,
2013-04-25 22:16:00,67.3,27.9,30.04,NNW,338,5.8,12.1,23,0.00,,,0.00,WUHU216HW,2013-04-26 05:16:00,
2013-04-25 22:21:00,67.3,27.9,30.03,NNW,338,6.3,12.1,23,0.00,,,0.00,WUHU216HW,2013-04-26 05:21:00,
2013-04-25 22:26:00,67.3,27.9,30.03,NNE,23,5.4,11.6,23,0.00,,,0.00,WUHU216HW,2013-04-26 05:26:00,
2013-04-25 22:31:00,67.1,27.7,30.03,NW,315,4.7,9.8,23,0.00,,,0.00,WUHU216HW,2013-04-26 05:31:00,
2013-04-25 22:36:00,67.0,27.6,30.04,WNW,293,3.1,9.8,23,0.00,,,0.00,WUHU216HW,2013-04-26 05:36:00,
2013-04-25 22:41:00,66.6,27.3,30.04,North,0,2.9,6.9,23,0.00,,,0.00,WUHU216HW,2013-04-26 05:41:00,
2013-04-25 22:46:00,66.2,27.0,30.04,NW,315,2.0,6.3,23,0.00,,,0.00,WUHU216HW,2013-04-26 05:46:00,
2013-04-25 22:51:00,65.9,26.6,30.04,North,0,0.9,4.0,23,0.00,,,0.00,WUHU216HW,2013-04-26 05:51:00,
2013-04-25 22:56:00,65.7,27.6,30.04,NE,45,6.7,6.9,24,0.00,,,0.00,WUHU216HW,2013-04-26 05:56:00,
2013-04-25 23:01:00,66.1,27.8,30.05,NNE,23,6.3,6.9,24,0.00,,,0.00,WUHU216HW,2013-04-26 06:01:00,
2013-04-25 23:06:00,66.2,28.0,30.05,NNW,338,2.9,6.7,24,0.00,,,0.00,WUHU216HW,2013-04-26 06:06:00,
2013-04-25 23:11:00,66.4,28.2,30.05,North,0,1.6,6.3,24,0.00,,,0.00,WUHU216HW,2013-04-26 06:11:00,
2013-04-25 23:16:00,66.4,28.2,30.05,NNE,23,2.5,4.3,24,0.00,,,0.00,WUHU216HW,2013-04-26 06:16:00,
2013-04-25 23:21:00,66.2,28.0,30.05,North,0,2.0,3.8,24,0.00,,,0.00,WUHU216HW,2013-04-26 06:21:00,
2013-04-25 23:26:00,66.1,27.8,30.05,North,0,2.5,4.3,24,0.00,,,0.00,WUHU216HW,2013-04-26 06:26:00,
2013-04-25 23:31:00,65.9,27.6,30.05,NNE,23,2.2,4.3,24,0.00,,,0.00,WUHU216HW,2013-04-26 06:31:00,
2013-04-25 23:36:00,65.9,27.6,30.05,North,0,2.5,3.4,24,0.00,,,0.00,WUHU216HW,2013-04-26 06:36:00,
2013-04-25 23:41:00,65.7,27.6,30.05,WNW,293,2.2,4.9,24,0.00,,,0.00,WUHU216HW,2013-04-26 06:41:00,
2013-04-25 23:46:00,65.7,28.5,30.05,NNW,338,1.3,4.9,25,0.00,,,0.00,WUHU216HW,2013-04-26 06:46:00,
2013-04-25 23:51:00,65.5,28.4,30.05,NNE,23,1.8,4.0,25,0.00,,,0.00,WUHU216HW,2013-04-26 06:51:00,
2013-04-25 23:56:00,65.3,28.3,30.06,NNW,338,0.9,4.0,25,0.00,,,0.00,WUHU216HW,2013-04-26 06:56:00,